DELTA55 KMIA-KMCO

Flight info

Callsign DELTA55
Flight time 0h 39m
Altitude 22000
Route DURRY CLEFF BAIRN ODDEL SABOT
Aircraft A343/H-SDE2E3FGHIJ4J5M1RWXY/LB1D1

Departure

Time 2026-05-04 15:10
Airport Miami International Airport (KMIA)

Arrival

Time 2026-05-04 15:49
Airport Orlando International Airport (KMCO)
Time Latitude Longitude Altitude Speed Heading
2026-05-04 15:06 25.78942 -80.27267 17 ft 0 kts 264°
2026-05-04 15:07 25.78938 -80.27292 17 ft 12 kts 260°
2026-05-04 15:07 25.78916 -80.27460 22 ft 28 kts 261°
2026-05-04 15:07 25.78811 -80.27560 26 ft 16 kts 173°
2026-05-04 15:08 25.78726 -80.27580 21 ft 0 kts 212°
2026-05-04 15:08 25.78722 -80.27598 24 ft 7 kts 259°
2026-05-04 15:08 25.78746 -80.27636 23 ft 5 kts 313°
2026-05-04 15:09 25.78763 -80.27686 23 ft 7 kts 275°
2026-05-04 15:09 25.78763 -80.27704 22 ft 0 kts 269°
2026-05-04 15:09 25.78761 -80.27783 24 ft 39 kts 268°
2026-05-04 15:10 25.78692 -80.29396 20 ft 164 kts 267°
2026-05-04 15:10 25.78629 -80.30826 147 ft 201 kts 268°
2026-05-04 15:10 25.79241 -80.33573 1256 ft 186 kts 312°
2026-05-04 15:11 25.80293 -80.34299 2092 ft 177 kts 352°
2026-05-04 15:11 25.81502 -80.34164 2883 ft 175 kts 11°
2026-05-04 15:11 25.82791 -80.33823 3079 ft 211 kts 13°
2026-05-04 15:11 25.84321 -80.33389 3318 ft 245 kts 14°
2026-05-04 15:12 25.85938 -80.32900 3807 ft 240 kts 14°
2026-05-04 15:12 25.87555 -80.32396 4282 ft 243 kts 14°
2026-05-04 15:12 25.89219 -80.32026 4804 ft 245 kts
2026-05-04 15:12 25.90926 -80.32140 5305 ft 248 kts 353°
2026-05-04 15:13 25.92657 -80.32328 5812 ft 252 kts 352°
2026-05-04 15:13 25.94417 -80.32515 6312 ft 256 kts 352°
2026-05-04 15:13 25.96209 -80.32706 6803 ft 261 kts 352°
2026-05-04 15:13 25.98031 -80.32898 7286 ft 266 kts 352°
2026-05-04 15:14 25.99853 -80.33086 7864 ft 266 kts 352°
2026-05-04 15:14 26.01697 -80.33267 8486 ft 266 kts 351°
2026-05-04 15:14 26.03543 -80.33436 9116 ft 266 kts 351°
2026-05-04 15:14 26.05389 -80.33591 9758 ft 266 kts 351°
2026-05-04 15:15 26.07242 -80.33733 10371 ft 267 kts 351°
2026-05-04 15:15 26.09098 -80.33857 10965 ft 268 kts 351°
2026-05-04 15:15 26.10982 -80.33964 11510 ft 269 kts 351°
2026-05-04 15:16 26.14797 -80.34107 12585 ft 273 kts 351°
2026-05-04 15:16 26.16704 -80.34150 13083 ft 277 kts 351°
2026-05-04 15:16 26.20619 -80.34175 14129 ft 287 kts 352°
2026-05-04 15:17 26.22599 -80.34168 14631 ft 291 kts 352°
2026-05-04 15:17 26.26599 -80.34148 15736 ft 290 kts 352°
2026-05-04 15:17 26.28625 -80.34138 16271 ft 290 kts 352°
2026-05-04 15:18 26.30671 -80.34127 16764 ft 291 kts 352°
2026-05-04 15:18 26.32707 -80.34118 17152 ft 293 kts 352°
2026-05-04 15:18 26.34785 -80.34107 17498 ft 301 kts 352°
2026-05-04 15:19 26.38972 -80.34076 18524 ft 306 kts 352°
2026-05-04 15:19 26.41103 -80.34059 19007 ft 304 kts 352°
2026-05-04 15:19 26.45404 -80.34025 19667 ft 315 kts 352°
2026-05-04 15:20 26.47625 -80.34018 19914 ft 326 kts 352°
2026-05-04 15:20 26.49951 -80.34026 19994 ft 343 kts 352°
2026-05-04 15:20 26.52363 -80.34055 20049 ft 361 kts 352°
2026-05-04 15:20 26.54932 -80.34106 20066 ft 376 kts 352°
2026-05-04 15:21 26.57571 -80.34168 20068 ft 381 kts 352°
2026-05-04 15:21 26.60223 -80.34231 20071 ft 381 kts 352°
2026-05-04 15:21 26.65514 -80.34357 20076 ft 379 kts 352°
2026-05-04 15:22 26.68149 -80.34416 20074 ft 378 kts 352°
2026-05-04 15:22 26.70742 -80.34474 20078 ft 378 kts 352°
2026-05-04 15:22 26.76010 -80.34608 20079 ft 377 kts 349°
2026-05-04 15:23 26.78561 -80.35092 20084 ft 370 kts 340°
2026-05-04 15:23 26.81052 -80.35784 20078 ft 368 kts 339°
2026-05-04 15:23 26.83524 -80.36516 20082 ft 367 kts 338°
2026-05-04 15:23 26.85983 -80.37264 20084 ft 366 kts 338°
2026-05-04 15:24 26.90846 -80.38839 20083 ft 364 kts 334°
2026-05-04 15:24 26.95303 -80.41337 20083 ft 355 kts 322°
2026-05-04 15:25 26.97372 -80.42842 20078 ft 354 kts 321°
2026-05-04 15:25 26.99384 -80.44418 20070 ft 350 kts 315°
2026-05-04 15:25 27.01071 -80.46348 20080 ft 345 kts 307°
2026-05-04 15:26 27.04161 -80.50473 20068 ft 346 kts 305°
2026-05-04 15:26 27.05677 -80.52565 20069 ft 346 kts 305°
2026-05-04 15:26 27.09512 -80.55846 20081 ft 358 kts 326°
2026-05-04 15:27 27.11738 -80.57111 20074 ft 359 kts 328°
2026-05-04 15:27 27.16231 -80.59568 20078 ft 359 kts 328°
2026-05-04 15:28 27.20750 -80.61989 20079 ft 360 kts 329°
2026-05-04 15:28 27.23012 -80.63199 20079 ft 360 kts 329°
2026-05-04 15:28 27.27502 -80.65607 20079 ft 360 kts 329°
2026-05-04 15:29 27.29761 -80.66819 20083 ft 360 kts 329°
2026-05-04 15:30 27.38794 -80.71684 20081 ft 360 kts 329°
2026-05-04 15:30 27.45476 -80.75388 20091 ft 360 kts 328°
2026-05-04 15:31 27.49957 -80.77890 20090 ft 359 kts 328°
2026-05-04 15:31 27.52198 -80.79141 20090 ft 360 kts 328°
2026-05-04 15:32 27.58938 -80.82912 20093 ft 361 kts 328°
2026-05-04 15:32 27.63401 -80.85411 19897 ft 365 kts 328°
2026-05-04 15:33 27.67972 -80.87994 19241 ft 366 kts 328°
2026-05-04 15:34 27.74722 -80.91853 18373 ft 356 kts 328°
2026-05-04 15:34 27.76921 -80.93120 18024 ft 354 kts 328°
2026-05-04 15:34 27.81249 -80.95635 17298 ft 350 kts 328°
2026-05-04 15:35 27.85548 -80.98170 16562 ft 347 kts 329°
2026-05-04 15:35 27.87678 -80.99440 16302 ft 343 kts 329°
2026-05-04 15:35 27.89643 -81.00876 16198 ft 331 kts 314°
2026-05-04 15:36 27.92494 -81.04932 16126 ft 334 kts 303°
2026-05-04 15:36 27.93862 -81.07085 16115 ft 339 kts 305°
2026-05-04 15:36 27.95562 -81.08951 16105 ft 343 kts 319°
2026-05-04 15:37 27.97455 -81.10538 16103 ft 343 kts 321°
2026-05-04 15:37 27.99421 -81.12121 15568 ft 354 kts 322°
2026-05-04 15:37 28.01457 -81.13753 14854 ft 363 kts 322°
2026-05-04 15:37 28.03535 -81.15425 14153 ft 369 kts 323°
2026-05-04 15:38 28.05607 -81.17101 13432 ft 371 kts 323°
2026-05-04 15:38 28.07702 -81.18795 12816 ft 369 kts 323°
2026-05-04 15:38 28.09782 -81.20471 12217 ft 366 kts 323°
2026-05-04 15:38 28.11153 -81.21572 11847 ft 363 kts 323°
2026-05-04 15:39 28.13884 -81.23785 11086 ft 358 kts 319°
2026-05-04 15:39 28.15030 -81.25106 10690 ft 354 kts 306°
2026-05-04 15:39 28.16157 -81.31105 10075 ft 329 kts 265°
2026-05-04 15:40 28.15970 -81.33624 10097 ft 313 kts 264°
2026-05-04 15:40 28.15754 -81.36040 9658 ft 311 kts 263°
2026-05-04 15:40 28.15593 -81.37684 9165 ft 318 kts 263°
2026-05-04 15:40 28.15331 -81.40199 8515 ft 325 kts 263°
2026-05-04 15:41 28.15052 -81.42758 7930 ft 329 kts 263°
2026-05-04 15:41 28.15068 -81.45348 7333 ft 333 kts 281°
2026-05-04 15:41 28.15962 -81.47760 6750 ft 336 kts 304°
2026-05-04 15:41 28.18303 -81.50037 5961 ft 340 kts 334°
2026-05-04 15:42 28.19815 -81.50614 5538 ft 339 kts 349°
2026-05-04 15:42 28.22128 -81.50628 4893 ft 330 kts 12°
2026-05-04 15:42 28.24191 -81.49673 4203 ft 324 kts 34°
2026-05-04 15:42 28.25732 -81.47880 3633 ft 314 kts 58°
2026-05-04 15:43 28.26421 -81.45698 3352 ft 279 kts 84°
2026-05-04 15:43 28.26161 -81.43660 3287 ft 251 kts 112°
2026-05-04 15:43 28.25161 -81.42093 3260 ft 243 kts 129°
2026-05-04 15:43 28.24010 -81.40724 3192 ft 236 kts 130°
2026-05-04 15:44 28.22871 -81.39403 3148 ft 230 kts 132°
2026-05-04 15:44 28.21749 -81.38145 3144 ft 226 kts 132°
2026-05-04 15:44 28.20612 -81.36903 3162 ft 228 kts 131°
2026-05-04 15:44 28.19759 -81.35419 3249 ft 225 kts 104°
2026-05-04 15:45 28.19734 -81.33653 2779 ft 236 kts 71°
2026-05-04 15:45 28.20651 -81.32125 2416 ft 239 kts 41°
2026-05-04 15:45 28.22130 -81.31296 2187 ft 238 kts 17°
2026-05-04 15:45 28.23613 -81.30636 2187 ft 223 kts 35°
2026-05-04 15:46 28.24792 -81.29545 2184 ft 217 kts 42°
2026-05-04 15:46 28.25917 -81.28399 2206 ft 218 kts 42°
2026-05-04 15:46 28.27201 -81.27523 2193 ft 217 kts 14°
2026-05-04 15:46 28.28691 -81.27673 2184 ft 222 kts 341°
2026-05-04 15:47 28.30076 -81.28458 1936 ft 222 kts 335°
2026-05-04 15:47 28.31410 -81.29244 1558 ft 212 kts 343°
2026-05-04 15:47 28.32755 -81.29593 1316 ft 188 kts
2026-05-04 15:47 28.34007 -81.29589 1102 ft 175 kts
2026-05-04 15:48 28.35186 -81.29523 914 ft 166 kts
2026-05-04 15:48 28.36321 -81.29539 788 ft 160 kts
2026-05-04 15:48 28.38586 -81.29543 475 ft 167 kts
2026-05-04 15:49 28.39722 -81.29547 311 ft 163 kts
2026-05-04 15:49 28.40868 -81.29563 128 ft 166 kts 360°
2026-05-04 15:49 28.41854 -81.29569 106 ft 96 kts 359°
2026-05-04 15:49 28.42270 -81.29573 104 ft 38 kts 359°
2026-05-04 15:50 28.42443 -81.29650 104 ft 15 kts 312°
2026-05-04 15:50 28.42457 -81.29670 105 ft 8 kts 306°
2026-05-04 15:50 28.42483 -81.29761 105 ft 18 kts 299°
2026-05-04 15:50 28.42585 -81.29818 105 ft 16 kts 310°
2026-05-04 15:51 28.42661 -81.29879 106 ft 14 kts 351°
2026-05-04 15:51 28.42728 -81.29909 106 ft 7 kts 315°
2026-05-04 15:51 28.42749 -81.29936 104 ft 2 kts 309°
2026-05-04 15:51 28.42751 -81.29940 105 ft 0 kts 309°
2026-05-04 15:52 28.42757 -81.29948 105 ft 6 kts 308°
2026-05-04 15:52 28.42780 -81.29982 106 ft 4 kts 307°
2026-05-04 15:52 28.42789 -81.29996 105 ft 0 kts 307°